01:54
Airports
History
Links
Donate
Help keep this website running!
PayPal
Bitcoin
This page is community maintained. The information is intended for PC simulator navigation or reference.
Always use approved charts for navigation.
CYZE
GORE BAY MANITOULIN
GORE BAY MANITOULIN (CYZE)
Gore Bay, Ontario, Canada
(U)
Lat/Lng:45° 53' 7" N / 82° 34' 4" W
45.885278 / -82.567779
Elevation:635'ft / 194mMSL
ID / ICAO:CYZE
Runways:1
Longest:11-29
Asphalt 1,481m / 4,858ft
METAR01:00 GMT 2017-10-19
Altimeter: 29.88
Visibility: 9.0 statute miles
Wind: 24 knots (from 210°)
Temp: 17°c / 63°f
Humidity: 55.4%

METAR: CYZE 190100Z AUTO 21024G32KT 9SM CLR 17/08 A2988 RMK SLP121 DENSITY ALT 900FT

(Powered by phpweather)
Airport Radio Frequencies
AWOS: 128.72
CTAF/UNICOM: 122.8
Nearby VORs <50NM
Nearby NDBs
Runway 11 / 29
Dimensions:1480.6 x 30.5m 4858' x 100'ft
Surface:Asphalt
Edge Lights:Medium intensity
Runway 11 [A]Runway 29 [B]
Heading:097°TH 277°TH
Lat:
Lng:
45° 53' 10"N
82° 34' 38.01"W
45° 53' 4"N
82° 33' 30"W
User Notes and Comments
45° 53' 7" N / 82° 34' 4" W
Distance To
Airport ID:
Nearby Airports
(U) ELLIOT LAKE MUNI 32.2 NM
CYEL N
(U) MANITOULIN EAST MUNI 34.3 NM
CYEM E 94°
(U) Killarney 52.0 NM
PT2 E 82°
(U) Thessalon Muni 55.0 NM
PL5 WNW 302°
(U) Drummond Island 57.1 NM
KDRM W 278°
(U) Yacht Haven 57.7 NM
D22 W 279°
(U) TOBERMORY 63.8 NM
CNR4 SE 134°
VFR Chart
Flight Planning at SkyVector.com